Time,TemperatureF,DewpointF,PressureIn,WindDirection,WindDirectionDegrees,WindSpeedMPH,WindSpeedGustMPH,Humidity,HourlyPrecipIn,Conditions,Clouds,dailyrainin,SoftwareType,DateUTC
2013-02-11 00:00:00,40.4,32.8,29.62,WSW,241,13.0,23.0,74,0.00,,---,0.00,VWS V14.01,2013-02-11 06:00:00,
2013-02-11 00:05:00,40.2,32.6,29.63,WSW,254,10.0,26.0,74,0.00,,---,0.00,VWS V14.01,2013-02-11 06:05:00,
2013-02-11 00:10:00,40.0,32.7,29.63,SW,216,13.0,27.0,75,0.00,,---,0.00,VWS V14.01,2013-02-11 06:10:00,
2013-02-11 00:15:00,39.8,32.9,29.63,SW,219,9.0,27.0,76,0.00,,---,0.00,VWS V14.01,2013-02-11 06:15:00,
2013-02-11 00:20:00,39.7,32.8,29.63,West,280,7.0,27.0,76,0.00,,---,0.00,VWS V14.01,2013-02-11 06:20:00,
2013-02-11 00:25:00,39.5,32.6,29.64,WSW,240,9.0,27.0,76,0.00,,---,0.00,VWS V14.01,2013-02-11 06:25:00,
2013-02-11 00:30:00,39.5,32.6,29.64,West,271,9.0,19.0,76,0.00,,---,0.00,VWS V14.01,2013-02-11 06:30:00,
2013-02-11 00:35:00,39.4,31.8,29.64,WSW,252,16.0,22.0,74,0.00,,---,0.00,VWS V14.01,2013-02-11 06:35:00,
2013-02-11 00:40:00,39.3,31.7,29.64,WSW,253,8.0,23.0,74,0.00,,---,0.00,VWS V14.01,2013-02-11 06:40:00,
2013-02-11 00:45:00,39.1,31.5,29.64,WSW,250,7.0,23.0,74,0.00,,---,0.00,VWS V14.01,2013-02-11 06:45:00,
2013-02-11 00:50:00,39.0,31.1,29.64,WNW,296,12.0,23.0,73,0.00,,---,0.00,VWS V14.01,2013-02-11 06:50:00,
2013-02-11 00:55:00,38.8,30.9,29.64,West,266,10.0,27.0,73,0.00,,---,0.00,VWS V14.01,2013-02-11 06:55:00,
2013-02-11 01:00:00,38.5,30.6,29.64,West,263,10.0,15.0,73,0.00,,---,0.00,VWS V14.01,2013-02-11 07:00:00,
2013-02-11 01:05:00,38.3,30.8,29.64,SW,230,10.0,22.0,74,0.00,,---,0.00,VWS V14.01,2013-02-11 07:05:00,
2013-02-11 01:10:00,38.2,30.7,29.64,West,265,7.0,25.0,74,0.00,,---,0.00,VWS V14.01,2013-02-11 07:10:00,
2013-02-11 01:15:00,38.0,30.8,29.65,WSW,258,15.0,25.0,75,0.00,,---,0.00,VWS V14.01,2013-02-11 07:15:00,
2013-02-11 01:20:00,37.9,31.0,29.65,SW,222,5.0,25.0,76,0.00,,---,0.00,VWS V14.01,2013-02-11 07:20:00,
2013-02-11 01:25:00,37.6,31.1,29.66,WNW,289,10.0,25.0,77,0.00,,---,0.00,VWS V14.01,2013-02-11 07:25:00,
2013-02-11 01:30:00,37.5,30.0,29.66,WSW,258,14.0,21.0,74,0.00,,---,0.00,VWS V14.01,2013-02-11 07:30:00,
2013-02-11 01:35:00,37.6,30.1,29.66,WSW,257,10.0,23.0,74,0.00,,---,0.00,VWS V14.01,2013-02-11 07:35:00,
2013-02-11 01:40:00,37.4,30.2,29.67,West,262,8.0,23.0,75,0.00,,---,0.00,VWS V14.01,2013-02-11 07:40:00,
2013-02-11 01:45:00,37.1,29.9,29.67,West,271,12.0,23.0,75,0.00,,---,0.00,VWS V14.01,2013-02-11 07:45:00,
2013-02-11 01:50:00,36.8,29.0,29.67,West,264,13.0,23.0,73,0.00,,---,0.00,VWS V14.01,2013-02-11 07:50:00,
2013-02-11 01:55:00,36.6,28.8,29.68,WSW,256,11.0,24.0,73,0.00,,---,0.00,VWS V14.01,2013-02-11 07:55:00,
2013-02-11 02:00:00,36.4,28.6,29.68,West,259,13.0,13.0,73,0.00,,---,0.00,VWS V14.01,2013-02-11 08:00:00,
2013-02-11 02:05:00,36.2,28.4,29.68,West,267,14.0,21.0,73,0.00,,---,0.00,VWS V14.01,2013-02-11 08:05:00,
2013-02-11 02:10:00,36.1,28.3,29.69,West,277,15.0,25.0,73,0.00,,---,0.00,VWS V14.01,2013-02-11 08:10:00,
2013-02-11 02:15:00,36.0,28.2,29.69,WSW,256,10.0,25.0,73,0.00,,---,0.00,VWS V14.01,2013-02-11 08:15:00,
2013-02-11 02:20:00,35.9,28.1,29.69,West,278,14.0,25.0,73,0.00,,---,0.00,VWS V14.01,2013-02-11 08:20:00,
2013-02-11 02:25:00,35.8,27.7,29.69,SSW,192,7.0,26.0,72,0.00,,---,0.00,VWS V14.01,2013-02-11 08:25:00,
2013-02-11 02:30:00,35.6,27.5,29.70,West,261,9.0,16.0,72,0.00,,---,0.00,VWS V14.01,2013-02-11 08:30:00,
2013-02-11 02:35:00,35.5,27.4,29.70,WNW,290,11.0,24.0,72,0.00,,---,0.00,VWS V14.01,2013-02-11 08:35:00,
2013-02-11 02:40:00,35.4,27.3,29.70,West,273,12.0,25.0,72,0.00,,---,0.00,VWS V14.01,2013-02-11 08:40:00,
2013-02-11 02:45:00,35.3,27.5,29.70,WSW,244,13.0,26.0,73,0.00,,---,0.00,VWS V14.01,2013-02-11 08:45:00,
2013-02-11 02:50:00,35.2,27.8,29.70,SSW,194,12.0,26.0,74,0.00,,---,0.00,VWS V14.01,2013-02-11 08:50:00,
2013-02-11 02:55:00,35.2,27.1,29.70,SW,234,15.0,28.0,72,0.00,,---,0.00,VWS V14.01,2013-02-11 08:55:00,
2013-02-11 03:00:00,35.2,26.8,29.70,West,273,16.0,22.0,71,0.00,,---,0.00,VWS V14.01,2013-02-11 09:00:00,
2013-02-11 03:05:00,35.1,26.7,29.71,West,270,7.0,31.0,71,0.00,,---,0.00,VWS V14.01,2013-02-11 09:05:00,
2013-02-11 03:10:00,35.1,26.7,29.71,West,271,11.0,31.0,71,0.00,,---,0.00,VWS V14.01,2013-02-11 09:10:00,
2013-02-11 03:15:00,35.1,26.7,29.71,SSW,211,11.0,31.0,71,0.00,,---,0.00,VWS V14.01,2013-02-11 09:15:00,
2013-02-11 03:20:00,35.1,26.7,29.71,WSW,251,15.0,31.0,71,0.00,,---,0.00,VWS V14.01,2013-02-11 09:20:00,
2013-02-11 03:25:00,35.0,26.9,29.71,WSW,248,14.0,31.0,72,0.00,,---,0.00,VWS V14.01,2013-02-11 09:25:00,
2013-02-11 03:30:00,34.9,26.8,29.72,WSW,256,13.0,19.0,72,0.00,,---,0.00,VWS V14.01,2013-02-11 09:30:00,
2013-02-11 03:35:00,34.9,26.8,29.72,WSW,250,8.0,19.0,72,0.00,,---,0.00,VWS V14.01,2013-02-11 09:35:00,
2013-02-11 03:40:00,34.8,27.0,29.72,SW,233,16.0,21.0,73,0.00,,---,0.00,VWS V14.01,2013-02-11 09:40:00,
2013-02-11 03:45:00,34.9,26.8,29.72,WSW,257,15.0,25.0,72,0.00,,---,0.00,VWS V14.01,2013-02-11 09:45:00,
2013-02-11 03:50:00,35.0,26.6,29.72,SW,227,20.0,25.0,71,0.00,,---,0.00,VWS V14.01,2013-02-11 09:50:00,
2013-02-11 03:55:00,34.9,26.5,29.72,West,279,6.0,25.0,71,0.00,,---,0.00,VWS V14.01,2013-02-11 09:55:00,
2013-02-11 04:00:00,34.8,26.4,29.72,WNW,286,13.0,16.0,71,0.00,,---,0.00,VWS V14.01,2013-02-11 10:00:00,
2013-02-11 04:05:00,34.7,26.3,29.73,West,275,11.0,18.0,71,0.00,,---,0.00,VWS V14.01,2013-02-11 10:05:00,
2013-02-11 04:10:00,34.7,26.3,29.72,WNW,295,23.0,23.0,71,0.00,,---,0.00,VWS V14.01,2013-02-11 10:10:00,
2013-02-11 04:15:00,34.6,26.2,29.73,WNW,301,7.0,23.0,71,0.00,,---,0.00,VWS V14.01,2013-02-11 10:15:00,
2013-02-11 04:20:00,34.6,26.2,29.73,WSW,246,16.0,23.0,71,0.00,,---,0.00,VWS V14.01,2013-02-11 10:20:00,
2013-02-11 04:25:00,34.5,26.4,29.73,WSW,257,9.0,23.0,72,0.00,,---,0.00,VWS V14.01,2013-02-11 10:25:00,
2013-02-11 04:30:00,34.5,26.4,29.73,West,280,6.0,15.0,72,0.00,,---,0.00,VWS V14.01,2013-02-11 10:30:00,
2013-02-11 04:35:00,34.4,26.3,29.73,West,275,8.0,18.0,72,0.00,,---,0.00,VWS V14.01,2013-02-11 10:35:00,
2013-02-11 04:40:00,34.4,26.3,29.74,WSW,243,8.0,23.0,72,0.00,,---,0.00,VWS V14.01,2013-02-11 10:40:00,
2013-02-11 04:45:00,34.4,26.7,29.74,West,261,7.0,23.0,73,0.00,,---,0.00,VWS V14.01,2013-02-11 10:45:00,
2013-02-11 04:50:00,34.4,27.0,29.75,West,260,9.0,23.0,74,0.00,,---,0.00,VWS V14.01,2013-02-11 10:50:00,
2013-02-11 04:55:00,34.4,26.7,29.75,West,261,7.0,23.0,73,0.00,,---,0.00,VWS V14.01,2013-02-11 10:55:00,
2013-02-11 05:00:00,34.4,26.3,29.75,West,271,14.0,15.0,72,0.00,,---,0.00,VWS V14.01,2013-02-11 11:00:00,
2013-02-11 05:05:00,34.4,26.0,29.75,West,271,14.0,19.0,71,0.00,,---,0.00,VWS V14.01,2013-02-11 11:05:00,
2013-02-11 05:10:00,34.4,25.6,29.75,WSW,252,9.0,21.0,70,0.00,,---,0.00,VWS V14.01,2013-02-11 11:10:00,
2013-02-11 05:15:00,34.4,25.3,29.75,West,264,13.0,21.0,69,0.00,,---,0.00,VWS V14.01,2013-02-11 11:15:00,
2013-02-11 05:20:00,34.4,25.3,29.75,WNW,286,8.0,21.0,69,0.00,,---,0.00,VWS V14.01,2013-02-11 11:20:00,
2013-02-11 05:25:00,34.3,25.2,29.75,West,272,14.0,21.0,69,0.00,,---,0.00,VWS V14.01,2013-02-11 11:25:00,
2013-02-11 05:30:00,34.3,24.9,29.75,West,276,11.0,13.0,68,0.00,,---,0.00,VWS V14.01,2013-02-11 11:30:00,
2013-02-11 05:35:00,34.3,24.9,29.76,SW,225,19.0,25.0,68,0.00,,---,0.00,VWS V14.01,2013-02-11 11:35:00,
2013-02-11 05:40:00,34.2,24.8,29.76,SSW,211,13.0,25.0,68,0.00,,---,0.00,VWS V14.01,2013-02-11 11:40:00,
2013-02-11 05:45:00,34.2,24.8,29.76,West,275,6.0,25.0,68,0.00,,---,0.00,VWS V14.01,2013-02-11 11:45:00,
2013-02-11 05:50:00,34.2,25.1,29.77,WNW,283,7.0,25.0,69,0.00,,---,0.00,VWS V14.01,2013-02-11 11:50:00,
2013-02-11 05:55:00,34.1,24.7,29.77,WSW,256,9.0,27.0,68,0.00,,---,0.00,VWS V14.01,2013-02-11 11:55:00,
2013-02-11 06:00:00,34.1,25.0,29.77,West,265,19.0,19.0,69,0.00,,---,0.00,VWS V14.01,2013-02-11 12:00:00,
2013-02-11 06:05:00,34.0,24.9,29.77,WSW,254,14.0,23.0,69,0.00,,---,0.00,VWS V14.01,2013-02-11 12:05:00,
2013-02-11 06:10:00,34.0,24.9,29.78,West,269,15.0,25.0,69,0.00,,---,0.00,VWS V14.01,2013-02-11 12:10:00,
2013-02-11 06:15:00,33.9,25.2,29.78,West,264,5.0,25.0,70,0.00,,---,0.00,VWS V14.01,2013-02-11 12:15:00,
2013-02-11 06:20:00,33.9,25.2,29.78,West,277,9.0,25.0,70,0.00,,---,0.00,VWS V14.01,2013-02-11 12:20:00,
2013-02-11 06:25:00,33.9,25.2,29.78,West,269,12.0,25.0,70,0.00,,---,0.00,VWS V14.01,2013-02-11 12:25:00,
2013-02-11 06:30:00,33.9,25.2,29.79,NNW,327,12.0,12.0,70,0.00,,---,0.00,VWS V14.01,2013-02-11 12:30:00,
2013-02-11 06:35:00,33.8,25.1,29.79,West,277,7.0,15.0,70,0.00,,---,0.00,VWS V14.01,2013-02-11 12:35:00,
2013-02-11 06:40:00,33.8,25.4,29.79,West,275,8.0,15.0,71,0.00,,---,0.00,VWS V14.01,2013-02-11 12:40:00,
2013-02-11 06:45:00,33.7,25.3,29.80,WNW,300,11.0,16.0,71,0.00,,---,0.00,VWS V14.01,2013-02-11 12:45:00,
2013-02-11 06:50:00,33.7,25.3,29.80,West,269,9.0,16.0,71,0.00,,---,0.00,VWS V14.01,2013-02-11 12:50:00,
2013-02-11 06:55:00,33.6,25.5,29.80,West,261,14.0,16.0,72,0.00,,---,0.00,VWS V14.01,2013-02-11 12:55:00,
2013-02-11 07:00:00,33.6,25.5,29.80,WSW,250,9.0,12.0,72,0.00,,---,0.00,VWS V14.01,2013-02-11 13:00:00,
2013-02-11 07:05:00,33.6,25.2,29.81,West,267,11.0,18.0,71,0.00,,---,0.00,VWS V14.01,2013-02-11 13:05:00,
2013-02-11 07:10:00,33.6,25.2,29.81,West,268,9.0,18.0,71,0.00,,---,0.00,VWS V14.01,2013-02-11 13:10:00,
2013-02-11 07:15:00,33.6,25.2,29.81,WNW,298,6.0,18.0,71,0.00,,---,0.00,VWS V14.01,2013-02-11 13:15:00,
2013-02-11 07:20:00,33.6,25.5,29.82,WSW,240,9.0,18.0,72,0.00,,---,0.00,VWS V14.01,2013-02-11 13:20:00,
2013-02-11 07:25:00,33.5,25.5,29.82,West,273,5.0,18.0,72,0.00,,---,0.00,VWS V14.01,2013-02-11 13:25:00,
2013-02-11 07:30:00,33.5,25.5,29.82,West,272,9.0,10.0,72,0.00,,---,0.00,VWS V14.01,2013-02-11 13:30:00,
2013-02-11 07:35:00,33.5,25.5,29.82,WNW,300,12.0,15.0,72,0.00,,---,0.00,VWS V14.01,2013-02-11 13:35:00,
2013-02-11 07:40:00,33.6,25.5,29.83,WSW,256,9.0,16.0,72,0.00,,---,0.00,VWS V14.01,2013-02-11 13:40:00,
2013-02-11 07:45:00,33.6,25.2,29.83,NW,311,9.0,20.0,71,0.00,,---,0.00,VWS V14.01,2013-02-11 13:45:00,
2013-02-11 07:50:00,33.6,25.2,29.83,West,269,6.0,20.0,71,0.00,,---,0.00,VWS V14.01,2013-02-11 13:50:00,
2013-02-11 07:55:00,33.6,24.9,29.83,WNW,291,9.0,20.0,70,0.00,,---,0.00,VWS V14.01,2013-02-11 13:55:00,
2013-02-11 08:00:00,33.6,24.5,29.83,West,271,16.0,19.0,69,0.00,,---,0.00,VWS V14.01,2013-02-11 14:00:00,
2013-02-11 08:05:00,33.7,24.6,29.84,West,266,7.0,19.0,69,0.00,,---,0.00,VWS V14.01,2013-02-11 14:05:00,
2013-02-11 08:10:00,33.6,24.2,29.84,West,268,6.0,19.0,68,0.00,,---,0.00,VWS V14.01,2013-02-11 14:10:00,
2013-02-11 08:15:00,33.6,24.5,29.84,West,261,10.0,19.0,69,0.00,,---,0.00,VWS V14.01,2013-02-11 14:15:00,
2013-02-11 08:20:00,33.6,24.5,29.84,WNW,287,14.0,19.0,69,0.00,,---,0.00,VWS V14.01,2013-02-11 14:20:00,
2013-02-11 08:25:00,33.6,24.5,29.85,NNW,331,14.0,21.0,69,0.00,,---,0.00,VWS V14.01,2013-02-11 14:25:00,
2013-02-11 08:30:00,33.6,24.9,29.85,West,267,10.0,15.0,70,0.00,,---,0.00,VWS V14.01,2013-02-11 14:30:00,
2013-02-11 08:35:00,33.5,24.8,29.85,WSW,239,8.0,20.0,70,0.00,,---,0.00,VWS V14.01,2013-02-11 14:35:00,
2013-02-11 08:40:00,33.5,25.1,29.86,West,275,8.0,20.0,71,0.00,,---,0.00,VWS V14.01,2013-02-11 14:40:00,
2013-02-11 08:45:00,33.5,25.1,29.86,West,273,14.0,20.0,71,0.00,,---,0.00,VWS V14.01,2013-02-11 14:45:00,
2013-02-11 08:50:00,33.5,25.1,29.87,West,268,9.0,20.0,71,0.00,,---,0.00,VWS V14.01,2013-02-11 14:50:00,
2013-02-11 08:55:00,33.5,24.4,29.87,West,275,19.0,21.0,69,0.00,,---,0.00,VWS V14.01,2013-02-11 14:55:00,
2013-02-11 09:00:00,33.5,24.4,29.87,West,269,9.0,24.0,69,0.00,,---,0.00,VWS V14.01,2013-02-11 15:00:00,
2013-02-11 09:05:00,33.4,24.3,29.87,West,263,16.0,25.0,69,0.00,,---,0.00,VWS V14.01,2013-02-11 15:05:00,
2013-02-11 09:10:00,33.3,23.9,29.88,West,263,16.0,30.0,68,0.00,,---,0.00,VWS V14.01,2013-02-11 15:10:00,
2013-02-11 09:15:00,33.3,23.9,29.88,WNW,284,9.0,30.0,68,0.00,,---,0.00,VWS V14.01,2013-02-11 15:15:00,
2013-02-11 09:20:00,33.3,23.9,29.88,WNW,292,11.0,30.0,68,0.00,,---,0.00,VWS V14.01,2013-02-11 15:20:00,
2013-02-11 09:25:00,33.3,23.9,29.88,West,269,12.0,30.0,68,0.00,,---,0.00,VWS V14.01,2013-02-11 15:25:00,
2013-02-11 09:30:00,33.3,23.5,29.89,WSW,258,13.0,16.0,67,0.00,,---,0.00,VWS V14.01,2013-02-11 15:30:00,
2013-02-11 09:35:00,33.4,24.0,29.89,West,270,9.0,18.0,68,0.00,,---,0.00,VWS V14.01,2013-02-11 15:35:00,
2013-02-11 09:40:00,33.4,24.0,29.90,West,275,14.0,18.0,68,0.00,,---,0.00,VWS V14.01,2013-02-11 15:40:00,
2013-02-11 09:45:00,33.4,24.0,29.90,WNW,298,12.0,21.0,68,0.00,,---,0.00,VWS V14.01,2013-02-11 15:45:00,
2013-02-11 09:50:00,33.3,23.9,29.90,WNW,285,13.0,25.0,68,0.00,,---,0.00,VWS V14.01,2013-02-11 15:50:00,
2013-02-11 09:55:00,33.2,23.8,29.90,NW,309,16.0,25.0,68,0.00,,---,0.00,VWS V14.01,2013-02-11 15:55:00,
2013-02-11 10:00:00,33.2,23.8,29.91,WNW,282,13.0,15.0,68,0.00,,---,0.00,VWS V14.01,2013-02-11 16:00:00,
2013-02-11 10:05:00,33.3,23.9,29.91,WNW,286,8.0,25.0,68,0.00,,---,0.00,VWS V14.01,2013-02-11 16:05:00,
2013-02-11 10:10:00,33.4,24.3,29.91,WNW,282,10.0,25.0,69,0.00,,---,0.00,VWS V14.01,2013-02-11 16:10:00,
2013-02-11 10:15:00,33.4,24.0,29.92,West,271,13.0,25.0,68,0.00,,---,0.00,VWS V14.01,2013-02-11 16:15:00,
2013-02-11 10:20:00,33.5,24.1,29.92,West,265,18.0,25.0,68,0.00,,---,0.00,VWS V14.01,2013-02-11 16:20:00,
2013-02-11 10:25:00,33.4,24.3,29.92,WNW,296,10.0,26.0,69,0.00,,---,0.00,VWS V14.01,2013-02-11 16:25:00,
2013-02-11 10:30:00,33.4,24.3,29.92,West,263,12.0,13.0,69,0.00,,---,0.00,VWS V14.01,2013-02-11 16:30:00,
2013-02-11 10:35:00,33.4,24.3,29.92,West,273,5.0,15.0,69,0.00,,---,0.00,VWS V14.01,2013-02-11 16:35:00,
2013-02-11 10:40:00,33.4,24.3,29.93,WNW,286,11.0,19.0,69,0.00,,---,0.00,VWS V14.01,2013-02-11 16:40:00,
2013-02-11 10:45:00,33.4,24.0,29.93,SW,233,10.0,19.0,68,0.00,,---,0.00,VWS V14.01,2013-02-11 16:45:00,
2013-02-11 10:50:00,33.5,24.4,29.93,West,268,9.0,19.0,69,0.00,,---,0.00,VWS V14.01,2013-02-11 16:50:00,
2013-02-11 10:55:00,33.7,24.6,29.93,West,273,12.0,19.0,69,0.00,,---,0.00,VWS V14.01,2013-02-11 16:55:00,
2013-02-11 11:00:00,34.0,24.6,29.93,West,272,10.0,13.0,68,0.00,,---,0.00,VWS V14.01,2013-02-11 17:00:00,
2013-02-11 11:05:00,34.1,24.7,29.93,West,270,8.0,25.0,68,0.00,,---,0.00,VWS V14.01,2013-02-11 17:05:00,
2013-02-11 11:10:00,34.2,24.8,29.93,West,261,15.0,25.0,68,0.00,,---,0.00,VWS V14.01,2013-02-11 17:10:00,
2013-02-11 11:15:00,34.1,24.3,29.94,NNW,327,16.0,29.0,67,0.00,,---,0.00,VWS V14.01,2013-02-11 17:15:00,
2013-02-11 11:20:00,34.0,24.6,29.94,North,351,10.0,29.0,68,0.00,,---,0.00,VWS V14.01,2013-02-11 17:20:00,
2013-02-11 11:25:00,33.9,24.8,29.94,West,276,9.0,29.0,69,0.00,,---,0.00,VWS V14.01,2013-02-11 17:25:00,
2013-02-11 11:30:00,33.9,24.5,29.95,West,281,10.0,15.0,68,0.00,,---,0.00,VWS V14.01,2013-02-11 17:30:00,
2013-02-11 11:35:00,33.9,24.5,29.95,West,269,7.0,19.0,68,0.00,,---,0.00,VWS V14.01,2013-02-11 17:35:00,
2013-02-11 11:40:00,34.0,24.9,29.94,WNW,296,7.0,20.0,69,0.00,,---,0.00,VWS V14.01,2013-02-11 17:40:00,
2013-02-11 11:45:00,34.4,25.0,29.95,ESE,116,8.0,28.0,68,0.00,,---,0.00,VWS V14.01,2013-02-11 17:45:00,
2013-02-11 11:50:00,34.4,25.0,29.94,WNW,302,13.0,28.0,68,0.00,,---,0.00,VWS V14.01,2013-02-11 17:50:00,
2013-02-11 11:55:00,34.4,25.0,29.94,WNW,290,19.0,28.0,68,0.00,,---,0.00,VWS V14.01,2013-02-11 17:55:00,
2013-02-11 12:00:00,34.2,24.8,29.94,West,275,16.0,18.0,68,0.00,,---,0.00,VWS V14.01,2013-02-11 18:00:00,
2013-02-11 12:05:00,34.3,25.2,29.94,West,275,14.0,22.0,69,0.00,,---,0.00,VWS V14.01,2013-02-11 18:05:00,
2013-02-11 12:10:00,34.4,25.3,29.95,West,263,16.0,25.0,69,0.00,,---,0.00,VWS V14.01,2013-02-11 18:10:00,
2013-02-11 12:15:00,34.3,24.9,29.95,West,272,10.0,25.0,68,0.00,,---,0.00,VWS V14.01,2013-02-11 18:15:00,
2013-02-11 12:20:00,34.4,25.3,29.95,West,271,13.0,25.0,69,0.00,,---,0.00,VWS V14.01,2013-02-11 18:20:00,
2013-02-11 12:25:00,34.6,25.5,29.95,WNW,297,12.0,25.0,69,0.00,,---,0.00,VWS V14.01,2013-02-11 18:25:00,
2013-02-11 12:30:00,34.5,24.7,29.95,West,265,18.0,24.0,67,0.00,,---,0.00,VWS V14.01,2013-02-11 18:30:00,
2013-02-11 12:35:00,34.5,24.7,29.95,WNW,296,19.0,24.0,67,0.00,,---,0.00,VWS V14.01,2013-02-11 18:35:00,
2013-02-11 12:40:00,34.6,25.5,29.95,WNW,284,11.0,24.0,69,0.00,,---,0.00,VWS V14.01,2013-02-11 18:40:00,
2013-02-11 12:45:00,34.7,25.6,29.95,WNW,293,23.0,24.0,69,0.00,,---,0.00,VWS V14.01,2013-02-11 18:45:00,
2013-02-11 12:50:00,35.0,25.9,29.95,NW,315,9.0,24.0,69,0.00,,---,0.00,VWS V14.01,2013-02-11 18:50:00,
2013-02-11 12:55:00,35.1,26.3,29.95,West,275,14.0,24.0,70,0.00,,---,0.00,VWS V14.01,2013-02-11 18:55:00,
2013-02-11 13:00:00,35.0,25.5,29.96,WSW,255,16.0,20.0,68,0.00,,---,0.00,VWS V14.01,2013-02-11 19:00:00,
2013-02-11 13:05:00,34.8,25.3,29.95,West,271,15.0,26.0,68,0.00,,---,0.00,VWS V14.01,2013-02-11 19:05:00,
2013-02-11 13:10:00,35.1,25.6,29.95,West,279,15.0,26.0,68,0.00,,---,0.00,VWS V14.01,2013-02-11 19:10:00,
2013-02-11 13:15:00,35.2,25.7,29.95,West,280,11.0,26.0,68,0.00,,---,0.00,VWS V14.01,2013-02-11 19:15:00,
2013-02-11 13:20:00,35.5,26.0,29.95,WNW,298,10.0,26.0,68,0.00,,---,0.00,VWS V14.01,2013-02-11 19:20:00,
2013-02-11 13:25:00,35.7,26.2,29.95,WNW,282,14.0,27.0,68,0.00,,---,0.00,VWS V14.01,2013-02-11 19:25:00,
2013-02-11 13:30:00,36.2,27.0,29.96,West,281,4.0,11.0,69,0.00,,---,0.00,VWS V14.01,2013-02-11 19:30:00,
2013-02-11 13:35:00,36.8,26.9,29.95,West,259,18.0,21.0,67,0.00,,---,0.00,VWS V14.01,2013-02-11 19:35:00,
2013-02-11 13:40:00,36.9,27.0,29.96,West,263,11.0,21.0,67,0.00,,---,0.00,VWS V14.01,2013-02-11 19:40:00,
2013-02-11 13:45:00,36.8,27.2,29.96,NW,318,7.0,21.0,68,0.00,,---,0.00,VWS V14.01,2013-02-11 19:45:00,
2013-02-11 13:50:00,36.8,28.0,29.96,West,273,11.0,24.0,70,0.00,,---,0.00,VWS V14.01,2013-02-11 19:50:00,
2013-02-11 13:55:00,37.3,28.1,29.96,West,265,11.0,24.0,69,0.00,,---,0.00,VWS V14.01,2013-02-11 19:55:00,
2013-02-11 14:00:00,37.3,27.0,29.96,WNW,286,8.0,30.0,66,0.00,,---,0.00,VWS V14.01,2013-02-11 20:00:00,
2013-02-11 14:05:00,36.7,26.4,29.96,NW,320,7.0,30.0,66,0.00,,---,0.00,VWS V14.01,2013-02-11 20:05:00,
2013-02-11 14:10:00,36.5,27.0,29.96,WNW,300,8.0,30.0,68,0.00,,---,0.00,VWS V14.01,2013-02-11 20:10:00,
2013-02-11 14:15:00,36.9,27.3,29.96,West,277,19.0,30.0,68,0.00,,---,0.00,VWS V14.01,2013-02-11 20:15:00,
2013-02-11 14:20:00,37.1,27.2,29.97,WNW,287,13.0,30.0,67,0.00,,---,0.00,VWS V14.01,2013-02-11 20:20:00,
2013-02-11 14:25:00,37.2,27.3,29.97,NW,304,8.0,30.0,67,0.00,,---,0.00,VWS V14.01,2013-02-11 20:25:00,
2013-02-11 14:30:00,37.7,27.8,29.97,NW,313,16.0,20.0,67,0.00,,---,0.00,VWS V14.01,2013-02-11 20:30:00,
2013-02-11 14:35:00,38.1,28.1,29.98,WNW,302,10.0,22.0,67,0.00,,---,0.00,VWS V14.01,2013-02-11 20:35:00,
2013-02-11 14:40:00,38.3,28.3,29.98,NW,318,15.0,22.0,67,0.00,,---,0.00,VWS V14.01,2013-02-11 20:40:00,
2013-02-11 14:45:00,38.4,27.7,29.98,WNW,299,8.0,25.0,65,0.00,,---,0.00,VWS V14.01,2013-02-11 20:45:00,
2013-02-11 14:50:00,38.4,27.7,29.98,West,274,14.0,26.0,65,0.00,,---,0.00,VWS V14.01,2013-02-11 20:50:00,
2013-02-11 14:55:00,38.2,27.9,29.98,West,267,12.0,26.0,66,0.00,,---,0.00,VWS V14.01,2013-02-11 20:55:00,
2013-02-11 15:00:00,38.1,28.1,29.99,West,277,15.0,18.0,67,0.00,,---,0.00,VWS V14.01,2013-02-11 21:00:00,
2013-02-11 15:05:00,37.6,28.0,29.99,West,273,10.0,23.0,68,0.00,,---,0.00,VWS V14.01,2013-02-11 21:05:00,
2013-02-11 15:10:00,37.3,27.7,29.99,WNW,300,4.0,23.0,68,0.00,,---,0.00,VWS V14.01,2013-02-11 21:10:00,
2013-02-11 15:15:00,36.9,27.3,29.99,WNW,290,13.0,23.0,68,0.00,,---,0.00,VWS V14.01,2013-02-11 21:15:00,
2013-02-11 15:20:00,37.1,27.2,29.99,West,265,8.0,23.0,67,0.00,,---,0.00,VWS V14.01,2013-02-11 21:20:00,
2013-02-11 15:25:00,37.6,27.6,29.99,WNW,288,11.0,23.0,67,0.00,,---,0.00,VWS V14.01,2013-02-11 21:25:00,
2013-02-11 15:30:00,37.9,27.9,29.99,West,274,14.0,18.0,67,0.00,,---,0.00,VWS V14.01,2013-02-11 21:30:00,
2013-02-11 15:35:00,37.8,27.8,30.00,WNW,282,11.0,21.0,67,0.00,,---,0.00,VWS V14.01,2013-02-11 21:35:00,
2013-02-11 15:40:00,37.4,27.1,30.00,WNW,286,11.0,21.0,66,0.00,,---,0.00,VWS V14.01,2013-02-11 21:40:00,
2013-02-11 15:45:00,36.9,27.3,30.00,WNW,285,11.0,21.0,68,0.00,,---,0.00,VWS V14.01,2013-02-11 21:45:00,
2013-02-11 15:50:00,36.7,27.5,30.00,West,271,11.0,21.0,69,0.00,,---,0.00,VWS V14.01,2013-02-11 21:50:00,
2013-02-11 15:55:00,36.5,27.3,30.00,WNW,300,10.0,21.0,69,0.00,,---,0.00,VWS V14.01,2013-02-11 21:55:00,
2013-02-11 16:00:00,36.5,27.0,30.01,West,281,15.0,15.0,68,0.00,,---,0.00,VWS V14.01,2013-02-11 22:00:00,
2013-02-11 16:05:00,36.5,27.3,30.01,WNW,284,10.0,18.0,69,0.00,,---,0.00,VWS V14.01,2013-02-11 22:05:00,
2013-02-11 16:10:00,36.4,27.6,30.01,NW,319,9.0,18.0,70,0.00,,---,0.00,VWS V14.01,2013-02-11 22:10:00,
2013-02-11 16:15:00,36.5,27.7,30.01,NW,314,11.0,19.0,70,0.00,,---,0.00,VWS V14.01,2013-02-11 22:15:00,
2013-02-11 16:20:00,36.6,27.8,30.01,West,273,9.0,19.0,70,0.00,,---,0.00,VWS V14.01,2013-02-11 22:20:00,
2013-02-11 16:25:00,36.7,27.9,30.02,West,276,14.0,19.0,70,0.00,,---,0.00,VWS V14.01,2013-02-11 22:25:00,
2013-02-11 16:30:00,36.7,27.5,30.02,West,276,13.0,15.0,69,0.00,,---,0.00,VWS V14.01,2013-02-11 22:30:00,
2013-02-11 16:35:00,36.6,27.8,30.02,West,280,6.0,19.0,70,0.00,,---,0.00,VWS V14.01,2013-02-11 22:35:00,
2013-02-11 16:40:00,36.4,27.6,30.02,WNW,293,8.0,21.0,70,0.00,,---,0.00,VWS V14.01,2013-02-11 22:40:00,
2013-02-11 16:45:00,36.0,27.5,30.03,West,275,8.0,21.0,71,0.00,,---,0.00,VWS V14.01,2013-02-11 22:45:00,
2013-02-11 16:50:00,35.7,27.2,30.03,WNW,283,7.0,27.0,71,0.00,,---,0.00,VWS V14.01,2013-02-11 22:50:00,
2013-02-11 16:55:00,35.4,27.0,30.03,WNW,290,7.0,27.0,71,0.00,,---,0.00,VWS V14.01,2013-02-11 22:55:00,
2013-02-11 17:00:00,35.1,27.0,30.03,WNW,292,15.0,15.0,72,0.00,,---,0.00,VWS V14.01,2013-02-11 23:00:00,
2013-02-11 17:05:00,34.9,26.8,30.03,WNW,288,10.0,21.0,72,0.00,,---,0.00,VWS V14.01,2013-02-11 23:05:00,
2013-02-11 17:10:00,34.5,26.4,30.03,WNW,283,5.0,21.0,72,0.00,,---,0.00,VWS V14.01,2013-02-11 23:10:00,
2013-02-11 17:15:00,34.4,26.3,30.04,WNW,303,10.0,21.0,72,0.00,,---,0.00,VWS V14.01,2013-02-11 23:15:00,
2013-02-11 17:20:00,34.2,26.1,30.04,WNW,290,12.0,21.0,72,0.00,,---,0.00,VWS V14.01,2013-02-11 23:20:00,
2013-02-11 17:25:00,33.9,26.2,30.04,WNW,286,7.0,23.0,73,0.00,,---,0.00,VWS V14.01,2013-02-11 23:25:00,
2013-02-11 17:30:00,33.7,26.0,30.05,West,275,8.0,12.0,73,0.00,,---,0.00,VWS V14.01,2013-02-11 23:30:00,
2013-02-11 17:35:00,33.6,26.2,30.05,West,277,8.0,18.0,74,0.00,,---,0.00,VWS V14.01,2013-02-11 23:35:00,
2013-02-11 17:40:00,33.4,26.0,30.05,WNW,296,7.0,18.0,74,0.00,,---,0.00,VWS V14.01,2013-02-11 23:40:00,
2013-02-11 17:45:00,33.3,26.2,30.05,WNW,282,6.0,18.0,75,0.00,,---,0.00,VWS V14.01,2013-02-11 23:45:00,
2013-02-11 17:50:00,33.2,26.1,30.05,NW,309,9.0,18.0,75,0.00,,---,0.00,VWS V14.01,2013-02-11 23:50:00,
2013-02-11 17:55:00,33.0,26.3,30.06,WNW,300,7.0,18.0,76,0.00,,---,0.00,VWS V14.01,2013-02-11 23:55:00,
2013-02-11 18:00:00,32.8,26.4,30.05,West,266,9.0,13.0,77,0.00,,---,0.00,VWS V14.01,2013-02-12 00:00:00,
2013-02-11 18:05:00,32.5,26.1,30.06,NW,314,8.0,19.0,77,0.00,,---,0.00,VWS V14.01,2013-02-12 00:05:00,
2013-02-11 18:10:00,32.3,26.2,30.06,NW,304,8.0,19.0,78,0.00,,---,0.00,VWS V14.01,2013-02-12 00:10:00,
2013-02-11 18:15:00,32.1,26.0,30.07,NW,313,8.0,19.0,78,0.00,,---,0.00,VWS V14.01,2013-02-12 00:15:00,
2013-02-11 18:20:00,31.9,26.1,30.07,WNW,292,4.0,19.0,79,0.00,,---,0.00,VWS V14.01,2013-02-12 00:20:00,
2013-02-11 18:25:00,31.7,25.9,30.07,WNW,294,8.0,19.0,79,0.00,,---,0.00,VWS V14.01,2013-02-12 00:25:00,
2013-02-11 18:30:00,31.6,25.9,30.07,WNW,302,9.0,10.0,79,0.00,,---,0.00,VWS V14.01,2013-02-12 00:30:00,
2013-02-11 18:35:00,31.5,26.0,30.07,WNW,293,8.0,12.0,80,0.00,,---,0.00,VWS V14.01,2013-02-12 00:35:00,
2013-02-11 18:40:00,31.3,25.9,30.08,NNW,328,8.0,12.0,80,0.00,,---,0.00,VWS V14.01,2013-02-12 00:40:00,
2013-02-11 18:45:00,31.2,25.8,30.08,NW,304,12.0,15.0,80,0.00,,---,0.00,VWS V14.01,2013-02-12 00:45:00,
2013-02-11 18:50:00,31.2,25.8,30.08,WNW,288,8.0,15.0,80,0.00,,---,0.00,VWS V14.01,2013-02-12 00:50:00,
2013-02-11 18:55:00,31.1,25.7,30.08,WNW,292,7.0,15.0,80,0.00,,---,0.00,VWS V14.01,2013-02-12 00:55:00,
2013-02-11 19:00:00,31.1,25.7,30.08,WNW,289,8.0,13.0,80,0.00,,---,0.00,VWS V14.01,2013-02-12 01:00:00,
2013-02-11 19:05:00,31.0,25.6,30.08,WNW,291,6.0,14.0,80,0.00,,---,0.00,VWS V14.01,2013-02-12 01:05:00,
2013-02-11 19:10:00,31.0,25.6,30.08,West,275,9.0,18.0,80,0.00,,---,0.00,VWS V14.01,2013-02-12 01:10:00,
2013-02-11 19:15:00,31.0,25.6,30.08,West,269,7.0,18.0,80,0.00,,---,0.00,VWS V14.01,2013-02-12 01:15:00,
2013-02-11 19:20:00,30.9,25.5,30.08,West,281,4.0,18.0,80,0.00,,---,0.00,VWS V14.01,2013-02-12 01:20:00,
2013-02-11 19:25:00,30.8,25.4,30.08,WNW,284,8.0,18.0,80,0.00,,---,0.00,VWS V14.01,2013-02-12 01:25:00,
2013-02-11 19:30:00,30.8,25.4,30.08,WNW,293,9.0,10.0,80,0.00,,---,0.00,VWS V14.01,2013-02-12 01:30:00,
2013-02-11 19:35:00,30.7,25.3,30.08,WNW,303,8.0,13.0,80,0.00,,---,0.00,VWS V14.01,2013-02-12 01:35:00,
2013-02-11 19:40:00,30.6,25.2,30.08,WNW,287,8.0,13.0,80,0.00,,---,0.00,VWS V14.01,2013-02-12 01:40:00,
2013-02-11 19:45:00,30.6,25.2,30.08,WNW,291,2.0,13.0,80,0.00,,---,0.00,VWS V14.01,2013-02-12 01:45:00,
2013-02-11 19:50:00,30.5,25.1,30.08,NW,313,9.0,13.0,80,0.00,,---,0.00,VWS V14.01,2013-02-12 01:50:00,
2013-02-11 19:55:00,30.5,25.1,30.08,WNW,293,5.0,13.0,80,0.00,,---,0.00,VWS V14.01,2013-02-12 01:55:00,
2013-02-11 20:00:00,30.5,25.1,30.09,WNW,286,6.0,10.0,80,0.00,,---,0.00,VWS V14.01,2013-02-12 02:00:00,
2013-02-11 20:05:00,30.5,25.1,30.09,West,281,5.0,11.0,80,0.00,,---,0.00,VWS V14.01,2013-02-12 02:05:00,
2013-02-11 20:10:00,30.4,25.0,30.09,WNW,282,5.0,11.0,80,0.00,,---,0.00,VWS V14.01,2013-02-12 02:10:00,
2013-02-11 20:15:00,30.4,25.0,30.09,WNW,288,5.0,11.0,80,0.00,,---,0.00,VWS V14.01,2013-02-12 02:15:00,
2013-02-11 20:20:00,30.3,24.9,30.09,West,276,6.0,11.0,80,0.00,,---,0.00,VWS V14.01,2013-02-12 02:20:00,
2013-02-11 20:25:00,30.3,25.2,30.09,WNW,300,5.0,11.0,81,0.00,,---,0.00,VWS V14.01,2013-02-12 02:25:00,
2013-02-11 20:30:00,30.2,25.1,30.10,WNW,284,7.0,9.0,81,0.00,,---,0.00,VWS V14.01,2013-02-12 02:30:00,
2013-02-11 20:35:00,30.1,25.0,30.10,West,262,7.0,10.0,81,0.00,,---,0.00,VWS V14.01,2013-02-12 02:35:00,
2013-02-11 20:40:00,30.1,25.0,30.09,NW,317,8.0,10.0,81,0.00,,---,0.00,VWS V14.01,2013-02-12 02:40:00,
2013-02-11 20:45:00,30.1,25.0,30.09,WNW,292,5.0,14.0,81,0.00,,---,0.00,VWS V14.01,2013-02-12 02:45:00,
2013-02-11 20:50:00,30.2,24.8,30.09,NW,317,7.0,14.0,80,0.00,,---,0.00,VWS V14.01,2013-02-12 02:50:00,
2013-02-11 20:55:00,30.3,24.9,30.09,WNW,284,8.0,14.0,80,0.00,,---,0.00,VWS V14.01,2013-02-12 02:55:00,
2013-02-11 21:00:00,30.3,24.9,30.09,WNW,294,5.0,6.0,80,0.00,,---,0.00,VWS V14.01,2013-02-12 03:00:00,
2013-02-11 21:05:00,30.2,24.8,30.10,WNW,286,4.0,11.0,80,0.00,,---,0.00,VWS V14.01,2013-02-12 03:05:00,
2013-02-11 21:10:00,30.2,24.8,30.10,West,275,4.0,12.0,80,0.00,,---,0.00,VWS V14.01,2013-02-12 03:10:00,
2013-02-11 21:15:00,30.3,24.9,30.10,NNW,331,6.0,15.0,80,0.00,,---,0.00,VWS V14.01,2013-02-12 03:15:00,
2013-02-11 21:20:00,30.3,24.9,30.10,WNW,300,8.0,15.0,80,0.00,,---,0.00,VWS V14.01,2013-02-12 03:20:00,
2013-02-11 21:25:00,30.3,24.9,30.10,West,271,8.0,15.0,80,0.00,,---,0.00,VWS V14.01,2013-02-12 03:25:00,
2013-02-11 21:30:00,30.2,24.8,30.10,WNW,299,5.0,9.0,80,0.00,,---,0.00,VWS V14.01,2013-02-12 03:30:00,
2013-02-11 21:35:00,30.1,24.7,30.10,NNW,336,5.0,13.0,80,0.00,,---,0.00,VWS V14.01,2013-02-12 03:35:00,
2013-02-11 21:40:00,30.1,24.7,30.10,WNW,301,7.0,14.0,80,0.00,,---,0.00,VWS V14.01,2013-02-12 03:40:00,
2013-02-11 21:45:00,30.0,24.6,30.11,WNW,294,6.0,15.0,80,0.00,,---,0.00,VWS V14.01,2013-02-12 03:45:00,
2013-02-11 21:50:00,29.9,24.5,30.11,West,273,8.0,15.0,80,0.00,,---,0.00,VWS V14.01,2013-02-12 03:50:00,
2013-02-11 21:55:00,29.7,24.6,30.11,WNW,283,7.0,15.0,81,0.00,,---,0.00,VWS V14.01,2013-02-12 03:55:00,
2013-02-11 22:00:00,29.7,24.6,30.11,West,261,11.0,14.0,81,0.00,,---,0.00,VWS V14.01,2013-02-12 04:00:00,
2013-02-11 22:05:00,29.7,24.3,30.11,West,278,5.0,14.0,80,0.00,,---,0.00,VWS V14.01,2013-02-12 04:05:00,
2013-02-11 22:10:00,29.7,24.3,30.11,West,273,10.0,14.0,80,0.00,,---,0.00,VWS V14.01,2013-02-12 04:10:00,
2013-02-11 22:15:00,29.7,24.3,30.11,West,281,11.0,16.0,80,0.00,,---,0.00,VWS V14.01,2013-02-12 04:15:00,
2013-02-11 22:20:00,29.6,24.2,30.11,WNW,294,11.0,16.0,80,0.00,,---,0.00,VWS V14.01,2013-02-12 04:20:00,
2013-02-11 22:25:00,29.5,24.1,30.11,NW,307,6.0,16.0,80,0.00,,---,0.00,VWS V14.01,2013-02-12 04:25:00,
2013-02-11 22:30:00,29.4,24.0,30.12,WSW,253,7.0,7.0,80,0.00,,---,0.00,VWS V14.01,2013-02-12 04:30:00,
2013-02-11 22:35:00,29.3,24.2,30.12,WNW,290,9.0,11.0,81,0.00,,---,0.00,VWS V14.01,2013-02-12 04:35:00,
2013-02-11 22:40:00,29.4,24.0,30.12,NW,318,6.0,14.0,80,0.00,,---,0.00,VWS V14.01,2013-02-12 04:40:00,
2013-02-11 22:45:00,29.4,24.0,30.12,NW,304,6.0,14.0,80,0.00,,---,0.00,VWS V14.01,2013-02-12 04:45:00,
2013-02-11 22:50:00,29.4,24.0,30.12,WNW,282,6.0,14.0,80,0.00,,---,0.00,VWS V14.01,2013-02-12 04:50:00,
2013-02-11 22:55:00,29.4,24.3,30.12,WNW,283,4.0,14.0,81,0.00,,---,0.00,VWS V14.01,2013-02-12 04:55:00,
2013-02-11 23:00:00,29.2,24.1,30.13,WNW,290,3.0,5.0,81,0.00,,---,0.00,VWS V14.01,2013-02-12 05:00:00,
2013-02-11 23:05:00,29.1,24.0,30.13,WNW,288,4.0,7.0,81,0.00,,---,0.00,VWS V14.01,2013-02-12 05:05:00,
2013-02-11 23:10:00,29.0,23.9,30.13,WNW,290,1.0,7.0,81,0.00,,---,0.00,VWS V14.01,2013-02-12 05:10:00,
2013-02-11 23:15:00,28.9,24.1,30.13,WNW,284,2.0,8.0,82,0.00,,---,0.00,VWS V14.01,2013-02-12 05:15:00,
2013-02-11 23:20:00,28.8,24.0,30.13,WNW,294,4.0,9.0,82,0.00,,---,0.00,VWS V14.01,2013-02-12 05:20:00,
2013-02-11 23:25:00,28.7,23.9,30.13,NW,308,2.0,9.0,82,0.00,,---,0.00,VWS V14.01,2013-02-12 05:25:00,
2013-02-11 23:30:00,28.7,23.9,30.13,WNW,301,4.0,4.0,82,0.00,,---,0.00,VWS V14.01,2013-02-12 05:30:00,
2013-02-11 23:35:00,28.6,24.1,30.13,WNW,294,5.0,9.0,83,0.00,,---,0.00,VWS V14.01,2013-02-12 05:35:00,
2013-02-11 23:40:00,28.5,24.0,30.13,WNW,290,4.0,9.0,83,0.00,,---,0.00,VWS V14.01,2013-02-12 05:40:00,
2013-02-11 23:45:00,28.5,24.0,30.13,WNW,290,3.0,9.0,83,0.00,,---,0.00,VWS V14.01,2013-02-12 05:45:00,
2013-02-11 23:50:00,28.3,23.8,30.14,NW,306,4.0,9.0,83,0.00,,---,0.00,VWS V14.01,2013-02-12 05:50:00,
2013-02-11 23:55:00,28.3,24.1,30.14,WNW,299,3.0,9.0,84,0.00,,---,0.00,VWS V14.01,2013-02-12 05:55:00,